• en Belgique
  • Liste des pays
  • À 7 jours
  • Température de l'eau
  • Carte satellitaire
  • Carte météo
  • Widgets météo
  • user-avatar
    Se connecter

    Météo par heure à Kos

    Ce jour, 23 Octobre, Lundi

    Heure Température Précipitation Vent Pression Humidité
    00:00 +18°C° 0 mm 2 m/s 761 mmHg 56%
    01:00 +18°C° 0 mm 2 m/s 761 mmHg 57%
    02:00 +18°C° 0 mm 1 m/s 761 mmHg 58%
    03:00 +18°C° 0 mm 1 m/s 760 mmHg 61%
    04:00 +18°C° 0 mm 1 m/s 760 mmHg 63%
    05:00 +16°C° 0 mm 1 m/s 760 mmHg 66%
    06:00 +18°C° 0 mm 2 m/s 760 mmHg 64%
    07:00 +19°C° 0 mm 2 m/s 760 mmHg 62%
    08:00 +20°C° 0 mm 2 m/s 760 mmHg 60%
    09:00 +23°C° 0 mm 2 m/s 760 mmHg 53%
    10:00 +25°C° 0 mm 3 m/s 760 mmHg 46%
    11:00 +27°C° 0 mm 3 m/s 760 mmHg 39%
    12:00 +27°C° 0 mm 4 m/s 759 mmHg 39%
    13:00 +27°C° 0 mm 4 m/s 759 mmHg 38%
    14:00 +27°C° 0 mm 5 m/s 759 mmHg 38%
    15:00 +26°C° 0 mm 5 m/s 758 mmHg 45%
    16:00 +25°C° 0 mm 5 m/s 758 mmHg 52%
    17:00 +22°C° 0 mm 5 m/s 758 mmHg 59%
    18:00 +21°C° 0 mm 6 m/s 758 mmHg 65%
    19:00 +20°C° 0 mm 6 m/s 758 mmHg 72%
    20:00 +18°C° 0 mm 7 m/s 757 mmHg 79%
    21:00 +18°C° 0,1 mm 7 m/s 757 mmHg 80%
    22:00 +18°C° 0,1 mm 8 m/s 757 mmHg 82%
    23:00 +18°C° 0,1 mm 8 m/s 757 mmHg 83%

    Demain, 24 Octobre, Mardi

    Heure Température Précipitation Vent Pression Humidité
    00:00 +18°C° 0,5 mm 9 m/s 757 mmHg 81%
    01:00 +18°C° 0,5 mm 9 m/s 756 mmHg 78%
    02:00 +19°C° 0,5 mm 9 m/s 756 mmHg 76%
    03:00 +19°C° 0,8 mm 9 m/s 756 mmHg 77%
    04:00 +20°C° 0,8 mm 8 m/s 755 mmHg 78%
    05:00 +20°C° 0,8 mm 8 m/s 755 mmHg 79%
    06:00 +20°C° 1,1 mm 8 m/s 755 mmHg 82%
    07:00 +20°C° 1,1 mm 8 m/s 755 mmHg 84%
    08:00 +20°C° 1,1 mm 7 m/s 755 mmHg 87%
    09:00 +20°C° 1 mm 7 m/s 755 mmHg 84%
    10:00 +21°C° 1 mm 7 m/s 755 mmHg 81%
    11:00 +21°C° 1 mm 7 m/s 755 mmHg 78%
    12:00 +21°C° 1,3 mm 6 m/s 755 mmHg 76%
    13:00 +21°C° 1,3 mm 6 m/s 755 mmHg 75%
    14:00 +21°C° 1,3 mm 6 m/s 754 mmHg 74%
    15:00 +21°C° 1,2 mm 6 m/s 755 mmHg 77%
    16:00 +20°C° 1,2 mm 5 m/s 755 mmHg 80%
    17:00 +19°C° 1,2 mm 5 m/s 755 mmHg 83%
    18:00 +19°C° 0,9 mm 5 m/s 755 mmHg 84%
    19:00 +17°C° 0,9 mm 5 m/s 756 mmHg 84%
    20:00 +17°C° 0,9 mm 5 m/s 756 mmHg 85%
    21:00 +18°C° 0,5 mm 4 m/s 756 mmHg 86%
    22:00 +17°C° 0,5 mm 4 m/s 757 mmHg 87%
    23:00 +17°C° 0,5 mm 4 m/s 757 mmHg 87%

    Après-demain, 25 Octobre, Mercredi

    Heure Température Précipitation Vent Pression Humidité
    00:00 +17°C° 0,6 mm 3 m/s 757 mmHg 88%
    01:00 +16°C° 0,6 mm 3 m/s 758 mmHg 88%
    02:00 +16°C° 0,6 mm 2 m/s 758 mmHg 88%
    03:00 +16°C° 0,7 mm 3 m/s 758 mmHg 88%
    04:00 +16°C° 0,7 mm 3 m/s 758 mmHg 89%
    05:00 +16°C° 0,7 mm 3 m/s 758 mmHg 89%
    06:00 +15°C° 0,3 mm 4 m/s 759 mmHg 87%
    07:00 +17°C° 0,3 mm 4 m/s 759 mmHg 85%
    08:00 +17°C° 0,3 mm 5 m/s 760 mmHg 84%
    09:00 +19°C° 0,3 mm 5 m/s 760 mmHg 75%
    10:00 +21°C° 0,3 mm 5 m/s 761 mmHg 66%
    11:00 +22°C° 0,3 mm 6 m/s 761 mmHg 57%
    12:00 +23°C° 0,4 mm 6 m/s 761 mmHg 54%
    13:00 +23°C° 0,4 mm 5 m/s 761 mmHg 51%
    14:00 +23°C° 0,4 mm 5 m/s 761 mmHg 48%
    15:00 +22°C° 0,3 mm 5 m/s 761 mmHg 52%
    16:00 +21°C° 0,3 mm 5 m/s 762 mmHg 56%
    17:00 +20°C° 0,3 mm 5 m/s 762 mmHg 61%
    18:00 +19°C° 0,1 mm 5 m/s 763 mmHg 63%
    19:00 +19°C° 0,1 mm 5 m/s 763 mmHg 66%
    20:00 +18°C° 0,1 mm 4 m/s 764 mmHg 69%
    21:00 +18°C° 0,2 mm 4 m/s 764 mmHg 70%
    22:00 +17°C° 0,2 mm 4 m/s 764 mmHg 72%
    23:00 +17°C° 0,2 mm 4 m/s 765 mmHg 74%

    26 Octobre, Jeudi

    Heure Température Précipitation Vent Pression Humidité
    00:00 +15°C° 0,2 mm 4 m/s 765 mmHg 75%
    01:00 +15°C° 0,2 mm 4 m/s 765 mmHg 76%
    02:00 +15°C° 0,2 mm 4 m/s 765 mmHg 78%
    03:00 +16°C° 0,3 mm 3 m/s 765 mmHg 78%
    04:00 +16°C° 0,3 mm 3 m/s 766 mmHg 78%
    05:00 +14°C° 0,3 mm 3 m/s 766 mmHg 78%
    06:00 +16°C° 0 mm 3 m/s 766 mmHg 75%
    07:00 +16°C° 0 mm 3 m/s 766 mmHg 72%
    08:00 +17°C° 0 mm 3 m/s 767 mmHg 70%
    09:00 +19°C° 0 mm 3 m/s 767 mmHg 64%
    10:00 +20°C° 0 mm 3 m/s 767 mmHg 57%
    11:00 +22°C° 0 mm 3 m/s 767 mmHg 51%
    12:00 +24°C° 0 mm 3 m/s 767 mmHg 50%
    13:00 +24°C° 0 mm 3 m/s 767 mmHg 48%
    14:00 +25°C° 0 mm 4 m/s 767 mmHg 46%
    15:00 +24°C° 0 mm 3 m/s 767 mmHg 50%
    16:00 +22°C° 0 mm 3 m/s 766 mmHg 54%
    17:00 +21°C° 0 mm 3 m/s 766 mmHg 58%
    18:00 +20°C° 0 mm 4 m/s 767 mmHg 62%
    19:00 +19°C° 0 mm 4 m/s 767 mmHg 66%
    20:00 +17°C° 0 mm 5 m/s 767 mmHg 70%
    21:00 +17°C° 0 mm 4 m/s 767 mmHg 72%
    22:00 +17°C° 0 mm 4 m/s 767 mmHg 74%
    23:00 +15°C° 0 mm 4 m/s 767 mmHg 76%

    27 Octobre, Vendredi

    Heure Température Précipitation Vent Pression Humidité
    00:00 +15°C° 0 mm 4 m/s 767 mmHg 77%
    01:00 +15°C° 0 mm 4 m/s 767 mmHg 78%
    02:00 +14°C° 0 mm 4 m/s 766 mmHg 79%
    03:00 +14°C° 0 mm 4 m/s 766 mmHg 79%
    04:00 +14°C° 0 mm 4 m/s 766 mmHg 79%
    05:00 +14°C° 0 mm 3 m/s 766 mmHg 80%
    06:00 +14°C° 0 mm 4 m/s 766 mmHg 77%
    07:00 +15°C° 0 mm 4 m/s 766 mmHg 74%
    08:00 +17°C° 0 mm 4 m/s 766 mmHg 71%
    09:00 +19°C° 0 mm 3 m/s 766 mmHg 63%
    10:00 +21°C° 0 mm 3 m/s 766 mmHg 55%
    11:00 +24°C° 0 mm 3 m/s 766 mmHg 47%
    12:00 +25°C° 0 mm 3 m/s 765 mmHg 46%
    13:00 +25°C° 0 mm 3 m/s 765 mmHg 45%
    14:00 +25°C° 0 mm 3 m/s 764 mmHg 43%
    15:00 +24°C° 0 mm 3 m/s 764 mmHg 49%
    16:00 +22°C° 0 mm 3 m/s 764 mmHg 54%
    17:00 +20°C° 0 mm 3 m/s 764 mmHg 60%
    18:00 +19°C° 0 mm 3 m/s 764 mmHg 65%
    19:00 +18°C° 0 mm 3 m/s 764 mmHg 70%
    20:00 +17°C° 0 mm 2 m/s 764 mmHg 75%
    21:00 +17°C° 0 mm 2 m/s 763 mmHg 77%
    22:00 +17°C° 0 mm 2 m/s 763 mmHg 80%
    23:00 +16°C° 0 mm 2 m/s 763 mmHg 82%

    28 Octobre, Samedi

    Heure Température Précipitation Vent Pression Humidité
    00:00 +16°C° 0 mm 2 m/s 763 mmHg 84%
    01:00 +16°C° 0 mm 2 m/s 762 mmHg 86%
    02:00 +16°C° 0 mm 2 m/s 762 mmHg 88%
    03:00 +16°C° 0 mm 2 m/s 762 mmHg 88%
    04:00 +15°C° 0 mm 2 m/s 761 mmHg 89%
    05:00 +15°C° 0 mm 2 m/s 761 mmHg 90%
    06:00 +16°C° 0 mm 2 m/s 761 mmHg 86%
    07:00 +17°C° 0 mm 3 m/s 761 mmHg 83%
    08:00 +17°C° 0 mm 3 m/s 761 mmHg 80%
    09:00 +19°C° 0 mm 3 m/s 761 mmHg 72%
    10:00 +20°C° 0 mm 4 m/s 761 mmHg 64%
    11:00 +22°C° 0 mm 4 m/s 761 mmHg 56%
    12:00 +22°C° 0 mm 5 m/s 761 mmHg 56%
    13:00 +22°C° 0 mm 5 m/s 760 mmHg 56%
    14:00 +22°C° 0 mm 6 m/s 760 mmHg 55%
    15:00 +22°C° 0 mm 6 m/s 760 mmHg 59%
    16:00 +21°C° 0 mm 7 m/s 760 mmHg 64%
    17:00 +20°C° 0 mm 7 m/s 760 mmHg 68%
    18:00 +20°C° 0 mm 7 m/s 760 mmHg 68%
    19:00 +18°C° 0 mm 7 m/s 760 mmHg 68%
    20:00 +18°C° 0 mm 8 m/s 760 mmHg 68%
    21:00 +18°C° 0 mm 8 m/s 760 mmHg 69%
    22:00 +18°C° 0 mm 8 m/s 759 mmHg 70%
    23:00 +18°C° 0 mm 8 m/s 759 mmHg 71%

    29 Octobre, Dimanche

    Heure Température Précipitation Vent Pression Humidité
    00:00 +18°C° 0,1 mm 8 m/s 759 mmHg 72%
    01:00 +18°C° 0,1 mm 7 m/s 759 mmHg 74%
    02:00 +18°C° 0,1 mm 7 m/s 759 mmHg 76%
    03:00 +17°C° 0,3 mm 7 m/s 758 mmHg 79%
    04:00 +17°C° 0,3 mm 7 m/s 758 mmHg 82%
    05:00 +16°C° 0,3 mm 6 m/s 758 mmHg 85%
    06:00 +17°C° 0,4 mm 7 m/s 758 mmHg 82%
    07:00 +18°C° 0,4 mm 7 m/s 758 mmHg 79%
    08:00 +18°C° 0,4 mm 7 m/s 758 mmHg 76%
    09:00 +21°C° 0,4 mm 8 m/s 758 mmHg 71%
    10:00 +22°C° 0,4 mm 8 m/s 758 mmHg 66%
    11:00 +24°C° 0,4 mm 8 m/s 758 mmHg 60%
    12:00 +24°C° 0,6 mm 8 m/s 757 mmHg 61%
    13:00 +24°C° 0,6 mm 8 m/s 757 mmHg 61%
    14:00 +24°C° 0,6 mm 9 m/s 756 mmHg 62%
    15:00 +23°C° 1,4 mm 9 m/s 756 mmHg 68%
    16:00 +22°C° 1,4 mm 9 m/s 756 mmHg 74%
    17:00 +21°C° 1,4 mm 9 m/s 756 mmHg 80%
    18:00 +19°C° 2 mm 10 m/s 755 mmHg 82%
    19:00 +19°C° 2 mm 10 m/s 755 mmHg 84%
    20:00 +19°C° 2 mm 11 m/s 755 mmHg 86%
    21:00 +19°C° 1,9 mm 11 m/s 755 mmHg 86%
    22:00 +19°C° 1,9 mm 11 m/s 755 mmHg 86%
    23:00 +19°C° 1,9 mm 11 m/s 755 mmHg 87%
    Voir plus